Kokomo, IN

10:47 AM EDT on September 30, 2016 (GMT -0400)
Kokomo Municipal

Weather History for KOKK - June, 2013

Change the Weather History Date:

Friday, June 28, 2013

  Actual Average (KGUS) Record (KGUS)
Temperature  
Mean Temperature 74 °F -  
Max Temperature 84 °F 81 °F 102 °F (2012)
Min Temperature 64 °F 64 °F 54 °F (2015)
Cooling Degree Days 9    
Growing Degree Days 24 (Base 50)    
Moisture  
Dew Point 63 °F    
Average Humidity 73    
Maximum Humidity 88    
Minimum Humidity 51    
Precipitation  
Precipitation 0.07 in - - ()
Sea Level Pressure  
Sea Level Pressure 29.64 in    
Wind  
Wind Speed 10 mph (WNW)    
Max Wind Speed 18 mph    
Max Gust Speed 31 mph    
Visibility 10 miles    
Events Thunderstorm    
Averages and records for this station are not official NWS values.
T = Trace of Precipitation, MM = Missing Value Source: NWS Daily Summary

Daily Weather History Graph

Daily Weather History Graph

Search for Another Location

Airport or City:

Trip Planner

Search our weather history database for the weather conditions in past years. The results will help you decide how hot, cold, wet, or windy it might be!

Date:

Astronomy

Jun. 28, 2013 Rise Set
Actual Time 5:16 AM CDT 8:18 PM CDT
Civil Twilight 4:42 AM CDT 8:52 PM CDT
Nautical Twilight 4:00 AM CDT 9:34 PM CDT
Astronomical Twilight 3:11 AM CDT 10:23 PM CDT
Moon 11:45 PM CDT (6/28) 11:24 AM CDT (6/28)
Length of Visible Light 16h 09m
Length of Day
15h 02m
Waning Gibbous, 66% of the Moon is Illuminated
Jun 28
Waning Gibbous
Jun 29
Last Quarter
Jul 8
New
Jul 15
First Quarter
Jul 22
Full

Hourly Weather History & Observations

Time (CDT) Temp. Heat Index Dew Point Humidity Pressure Visibility Wind Dir Wind Speed Gust Speed Precip Events Conditions
12:15 AM 71.6 °F - 66.2 °F 83% 29.68 in 10.0 mi West 9.2 mph - N/A   Scattered Clouds
12:35 AM 71.6 °F - 66.2 °F 83% 29.69 in 10.0 mi West 9.2 mph - N/A   Clear
12:55 AM 71.6 °F - 66.2 °F 83% 29.68 in 10.0 mi West 9.2 mph - N/A   Clear
1:35 AM 71.6 °F - 66.2 °F 83% 29.68 in 10.0 mi West 9.2 mph - N/A   Clear
1:55 AM 71.6 °F - 66.2 °F 83% 29.67 in 10.0 mi West 9.2 mph - N/A   Clear
2:15 AM 71.6 °F - 66.2 °F 83% 29.67 in 10.0 mi West 10.4 mph - N/A   Clear
2:35 AM 69.8 °F - 66.2 °F 88% 29.67 in 10.0 mi WNW 6.9 mph - N/A   Clear
2:55 AM 69.8 °F - 66.2 °F 88% 29.67 in 10.0 mi West 6.9 mph - N/A   Clear
3:15 AM 69.8 °F - 64.4 °F 83% 29.67 in 10.0 mi WNW 5.8 mph - N/A   Clear
3:35 AM 69.8 °F - 64.4 °F 83% 29.66 in 10.0 mi West 8.1 mph - N/A   Clear
3:55 AM 68.0 °F - 64.4 °F 88% 29.66 in 10.0 mi West 8.1 mph - N/A   Clear
4:15 AM 68.0 °F - 62.6 °F 83% 29.67 in 10.0 mi West 8.1 mph - N/A   Clear
4:35 AM 68.0 °F - 62.6 °F 83% 29.66 in 10.0 mi West 8.1 mph - N/A   Clear
4:55 AM 68.0 °F - 62.6 °F 83% 29.66 in 10.0 mi West 9.2 mph - N/A   Partly Cloudy
5:15 AM 68.0 °F - 62.6 °F 83% 29.66 in 10.0 mi West 8.1 mph - N/A   Mostly Cloudy
5:35 AM 66.2 °F - 62.6 °F 88% 29.67 in 10.0 mi West 9.2 mph - N/A   Mostly Cloudy
5:55 AM 66.2 °F - 62.6 °F 88% 29.67 in 10.0 mi West 10.4 mph - N/A   Partly Cloudy
6:15 AM 66.2 °F - 62.6 °F 88% 29.67 in 10.0 mi West 9.2 mph - N/A   Clear
6:35 AM 68.0 °F - 62.6 °F 83% 29.67 in 10.0 mi West 9.2 mph - N/A   Partly Cloudy
6:55 AM 68.0 °F - 62.6 °F 83% 29.67 in 10.0 mi WNW 9.2 mph - N/A   Scattered Clouds
7:15 AM 69.8 °F - 62.6 °F 78% 29.67 in 10.0 mi West 10.4 mph - N/A   Mostly Cloudy
7:35 AM 71.6 °F - 62.6 °F 73% 29.68 in 10.0 mi WNW 11.5 mph - N/A   Partly Cloudy
7:55 AM 71.6 °F - 62.6 °F 73% 29.67 in 10.0 mi WNW 11.5 mph - N/A   Clear
8:15 AM 73.4 °F - 64.4 °F 73% 29.67 in 10.0 mi WNW 13.8 mph - N/A   Clear
8:35 AM 73.4 °F - 64.4 °F 73% 29.67 in 10.0 mi West 15.0 mph - N/A   Clear
8:55 AM 73.4 °F - 64.4 °F 73% 29.67 in 10.0 mi WNW 13.8 mph - N/A   Clear
9:15 AM 75.2 °F - 64.4 °F 69% 29.67 in 10.0 mi WNW 12.7 mph 18.4 mph N/A   Clear
9:35 AM 75.2 °F - 64.4 °F 69% 29.67 in 10.0 mi WNW 13.8 mph - N/A   Clear
9:55 AM 77.0 °F - 64.4 °F 65% 29.67 in 10.0 mi WNW 12.7 mph - N/A   Clear
10:15 AM 78.8 °F - 64.4 °F 61% 29.66 in 10.0 mi West 12.7 mph - N/A   Clear
10:35 AM 78.8 °F - 64.4 °F 61% 29.66 in 10.0 mi West 11.5 mph - N/A   Clear
10:55 AM 80.6 °F 82.3 °F 64.4 °F 58% 29.66 in 10.0 mi WNW 12.7 mph 18.4 mph N/A   Clear
11:15 AM 80.6 °F 82.3 °F 64.4 °F 58% 29.66 in 10.0 mi WNW 10.4 mph 18.4 mph N/A   Clear
11:35 AM 82.4 °F 83.9 °F 64.4 °F 54% 29.66 in 10.0 mi WNW 15.0 mph 18.4 mph N/A   Clear
11:55 AM 82.4 °F 83.9 °F 64.4 °F 54% 29.65 in 10.0 mi West 15.0 mph - N/A   Partly Cloudy
12:15 PM 82.4 °F 83.9 °F 64.4 °F 54% 29.64 in 10.0 mi WNW 16.1 mph - N/A   Partly Cloudy
12:35 PM 84.2 °F 85.6 °F 64.4 °F 51% 29.63 in 10.0 mi WNW 15.0 mph - N/A   Partly Cloudy
12:55 PM 82.4 °F 83.4 °F 62.6 °F 51% 29.63 in 10.0 mi West 18.4 mph 21.9 mph N/A Thunderstorm Mostly Cloudy
1:15 PM 82.4 °F 83.9 °F 64.4 °F 54% 29.63 in 10.0 mi NW 18.4 mph 23.0 mph N/A Thunderstorm Thunderstorm
1:35 PM 66.2 °F - 60.8 °F 83% 29.63 in 10.0 mi North 6.9 mph - 0.07 in Thunderstorm Mostly Cloudy
1:55 PM 71.6 °F - 62.6 °F 73% 29.63 in 10.0 mi NNE 5.8 mph - 0.07 in Thunderstorm Scattered Clouds
2:15 PM 73.4 °F - 62.6 °F 69% 29.63 in 10.0 mi Calm Calm - N/A   Scattered Clouds
2:35 PM 77.0 °F - 64.4 °F 65% 29.62 in 10.0 mi North 5.8 mph - N/A Thunderstorm Mostly Cloudy
2:55 PM 80.6 °F 82.3 °F 64.4 °F 58% 29.61 in 10.0 mi North 6.9 mph - N/A   Scattered Clouds
3:15 PM 78.8 °F - 64.4 °F 61% 29.60 in 10.0 mi North 10.4 mph - N/A Thunderstorm Mostly Cloudy
3:35 PM 78.8 °F - 64.4 °F 61% 29.60 in 10.0 mi North 6.9 mph - N/A Thunderstorm Scattered Clouds
3:55 PM 75.2 °F - 59.0 °F 57% 29.61 in 10.0 mi North 18.4 mph 31.1 mph N/A Thunderstorm Thunderstorm
4:15 PM 77.0 °F - 62.6 °F 61% 29.61 in 10.0 mi NNW 12.7 mph - N/A Thunderstorm Scattered Clouds
4:35 PM 78.8 °F - 60.8 °F 54% 29.60 in 10.0 mi North 9.2 mph - N/A   Clear
4:55 PM 78.8 °F - 60.8 °F 54% 29.60 in 10.0 mi North 10.4 mph - N/A   Clear
5:15 PM 78.8 °F - 60.8 °F 54% 29.59 in 10.0 mi NNW 6.9 mph - N/A   Clear
5:35 PM 80.6 °F 81.8 °F 62.6 °F 54% 29.59 in 10.0 mi NW 8.1 mph - N/A   Clear
5:55 PM 80.6 °F 81.8 °F 62.6 °F 54% 29.59 in 10.0 mi NNW 5.8 mph - N/A   Clear
6:15 PM 78.8 °F - 62.6 °F 57% 29.59 in 10.0 mi NW 8.1 mph - N/A   Partly Cloudy
6:35 PM 78.8 °F - 60.8 °F 54% 29.60 in 10.0 mi WNW 11.5 mph 24.2 mph N/A Thunderstorm Scattered Clouds
6:55 PM 71.6 °F - 59.0 °F 64% 29.63 in 9.0 mi NNW 15.0 mph 27.6 mph N/A Thunderstorm Thunderstorm
7:15 PM 68.0 °F - 60.8 °F 78% 29.62 in 10.0 mi NNW 12.7 mph - N/A Thunderstorm Mostly Cloudy
7:35 PM 66.2 °F - 60.8 °F 83% 29.62 in 10.0 mi NW 10.4 mph - N/A   Scattered Clouds
7:55 PM 66.2 °F - 60.8 °F 83% 29.62 in 10.0 mi NW 9.2 mph - N/A   Partly Cloudy
8:15 PM 66.2 °F - 60.8 °F 83% 29.62 in 10.0 mi West 5.8 mph - N/A   Mostly Cloudy
8:35 PM 66.2 °F - 60.8 °F 83% 29.62 in 10.0 mi West 6.9 mph - N/A   Overcast
8:55 PM 66.2 °F - 60.8 °F 83% 29.62 in 10.0 mi West 5.8 mph - N/A   Mostly Cloudy
9:15 PM 66.2 °F - 62.6 °F 88% 29.62 in 10.0 mi West 5.8 mph - N/A   Scattered Clouds
9:35 PM 66.2 °F - 62.6 °F 88% 29.62 in 10.0 mi West 4.6 mph - N/A   Partly Cloudy
9:55 PM 66.2 °F - 62.6 °F 88% 29.62 in 10.0 mi West 6.9 mph - N/A   Mostly Cloudy
10:15 PM 66.2 °F - 60.8 °F 83% 29.61 in 10.0 mi West 9.2 mph - N/A   Overcast
10:35 PM 66.2 °F - 60.8 °F 83% 29.61 in 10.0 mi West 9.2 mph - N/A   Scattered Clouds
10:55 PM 66.2 °F - 60.8 °F 83% 29.61 in 10.0 mi West 5.8 mph - N/A   Clear
11:15 PM 66.2 °F - 60.8 °F 83% 29.60 in 10.0 mi West 6.9 mph - N/A   Clear
11:35 PM 64.4 °F - 60.8 °F 88% 29.60 in 10.0 mi West 5.8 mph - N/A   Partly Cloudy
11:55 PM 66.2 °F - 60.8 °F 83% 29.60 in 10.0 mi WSW 6.9 mph - N/A   Mostly Cloudy